Jackson, MI

6:12 AM EST on December 16, 2019 (GMT -0500)
Jackson County-Reynolds

Weather History for KJXN - May, 2019

Change the Weather History Date:

Monday, May 6, 2019

  Actual Average Record
Temperature  
Mean Temperature 61 °F 55 °F  
Max Temperature 76 °F 66 °F 89 °F (1949)
Min Temperature 45 °F 43 °F 29 °F (1968)
Degree Days  
Heating Degree Days 4 11  
Month to date heating degree days 58 69  
Since 1 July heating degree days 6455 6415  
Cooling Degree Days 0 0  
Month to date cooling degree days 0 0  
Year to date cooling degree days 0 6  
Growing Degree Days 10 (Base 50)    
Moisture  
Dew Point 49 °F    
Average Humidity 66    
Maximum Humidity 93    
Minimum Humidity 38    
Precipitation  
Precipitation 0.04 in 0.09 in 1.79 in (1976)
Month to date precipitation 0.22 0.60  
Year to date precipitation 8.46 7.89  
Sea Level Pressure  
Sea Level Pressure 29.98 in    
Wind  
Wind Speed 6 mph (West)    
Max Wind Speed 22 mph    
Max Gust Speed 30 mph    
Visibility 10 miles    
Events      
T = Trace of Precipitation, MM = Missing Value Source: NWS Daily Summary

Daily Weather History Graph

Daily Weather History Graph

Search for Another Location

Airport or City:

Astronomy

May. 06, 2019 Rise Set
Actual Time 6:27 AM EDT 8:42 PM EDT
Civil Twilight 5:56 AM EDT 9:13 PM EDT
Nautical Twilight 5:17 AM EDT 9:52 PM EDT
Astronomical Twilight 4:35 AM EDT 10:34 PM EDT
Moon 7:48 AM EDT (5/6) 10:40 PM EDT (5/6)
Length of Visible Light 15h 17m
Length of Day
14h 15m
Waxing Crescent, 3% of the Moon is Illuminated
May 6
Waxing Crescent
May 11
First Quarter
May 18
Full
May 26
Last Quarter
Jun 3
New

Hourly Weather History & Observations

Time (EDT) Temp. Dew Point Humidity Pressure Visibility Wind Dir Wind Speed Gust Speed Precip Events Conditions
12:56 AM 51.1 °F 44.1 °F 77% 29.90 in 10.0 mi Calm Calm - N/A   Clear
1:56 AM 48.9 °F 45.0 °F 86% 29.91 in 10.0 mi Calm Calm - N/A   Clear
2:56 AM 48.0 °F 44.1 °F 86% 29.91 in 10.0 mi Calm Calm - N/A   Clear
3:56 AM 46.9 °F 43.0 °F 86% 29.92 in 10.0 mi WSW 3.5 mph - N/A   Partly Cloudy
4:56 AM 48.9 °F 43.0 °F 80% 29.93 in 10.0 mi Calm Calm - N/A   Clear
5:56 AM 50.0 °F 43.0 °F 77% 29.93 in 10.0 mi SW 3.5 mph - N/A   Partly Cloudy
6:56 AM 51.1 °F 45.0 °F 80% 29.95 in 10.0 mi Calm Calm - N/A   Mostly Cloudy
7:56 AM 54.0 °F 48.0 °F 80% 29.98 in 10.0 mi SW 5.8 mph - N/A   Overcast
8:56 AM 57.9 °F 48.9 °F 72% 29.99 in 10.0 mi SW 4.6 mph - N/A   Overcast
9:56 AM 64.0 °F 48.9 °F 58% 29.99 in 10.0 mi SW 8.1 mph - N/A   Mostly Cloudy
10:56 AM 66.9 °F 48.9 °F 52% 29.99 in 10.0 mi SW 11.5 mph 21.9 mph N/A   Mostly Cloudy
11:56 AM 68.0 °F 48.2 °F 49% 30.00 in 10.0 mi SW 15.0 mph - N/A   Mostly Cloudy
12:56 PM 73.0 °F 50.0 °F 44% 29.99 in 10.0 mi SW 16.1 mph 23.0 mph N/A   Mostly Cloudy
1:56 PM 75.0 °F 48.9 °F 40% 29.97 in 10.0 mi SSW 12.7 mph 25.3 mph N/A   Scattered Clouds
2:56 PM 72.0 °F 46.9 °F 41% 29.98 in 10.0 mi SSW 17.3 mph 26.5 mph N/A   Overcast
3:56 PM 64.0 °F 55.9 °F 75% 30.00 in 10.0 mi NW 6.9 mph - 0.03 in   Overcast
4:56 PM 66.9 °F 53.1 °F 61% 30.00 in 10.0 mi NNW 9.2 mph - N/A   Mostly Cloudy
5:56 PM 66.0 °F 51.1 °F 59% 30.01 in 10.0 mi NW 4.6 mph - N/A   Overcast
6:56 PM 64.9 °F 51.1 °F 61% 30.01 in 10.0 mi WNW 4.6 mph - N/A   Scattered Clouds
7:56 PM 64.0 °F 53.1 °F 67% 30.03 in 10.0 mi NNW 3.5 mph - N/A   Overcast
8:56 PM 62.1 °F 53.1 °F 72% 30.04 in 10.0 mi North 3.5 mph - N/A   Mostly Cloudy
9:56 PM 60.1 °F 53.1 °F 78% 30.06 in 10.0 mi Calm Calm - N/A   Overcast
10:56 PM 57.0 °F 53.1 °F 87% 30.07 in 10.0 mi Calm Calm - N/A   Mostly Cloudy
11:56 PM 57.0 °F 55.0 °F 93% 30.07 in 10.0 mi NNE 5.8 mph - N/A   Scattered Clouds